Weather Roundup
Issued by NWS Springfield, MO

Home | Current Version | Previous Version | Text Only | Print | Product List | Glossary On
Versions: 1 2 3 4 5 6 7 8 9 10 11 12 13 14 15 16 17 18 19 20 21 22 23 24 25 26 27 28 29 30 31 32 33 34 35 36 37 38 39 40 41 42 43 44 45 46 47 48 49 50
000
NZUS99 KSGF 190607
HRRSGF

HOURLY WEATHER
NATIONAL WEATHER SERVICE SPRINGFIELD MO
1200 AM CST THU JAN 19 2017

......SGF CWA......

CITY           SKY/WX    TMP DP  RH WIND       PRES   REMARKS
SPRINGFIELD    CLOUDY    43  41  93 SE12      29.95F
6HR MIN TEMP:  43; 6HR MAX TEMP:  45; 6HR PCP: TRACE;

JOPLIN         CLOUDY    46  45  96 SE7       29.94F
6HR MIN TEMP:  46; 6HR MAX TEMP:  50; 6HR PCP: TRACE;

WEST PLAINS    CLOUDY    41  40  96 E5        30.01F FOG
6HR MIN TEMP:  41; 6HR MAX TEMP:  42; 6HR PCP:  0.01;

ROLLA          CLOUDY    42  42 100 SE9       29.98F
6HR MIN TEMP:  42; 6HR MAX TEMP:  47; 6HR PCP:  0.05;

OSAGE BEACH    LGT RAIN  44  42  93 S5        30.00F
BRANSON        CLOUDY    41  41 100 E6        29.98F FOG

......SURROUNDING SGF CWA......

CITY           SKY/WX    TMP DP  RH WIND       PRES   REMARKS
CHANUTE        CLOUDY    46  44  93 S6        29.93F
PARSONS        CLOUDY    47  44  90 S5        29.94F
COFFEYVILLE    CLOUDY    47  46  97 S6        29.94F FOG
EMPORIA        CLOUDY    44  39  82 SE8       29.90F
GROVE OK       CLOUDY    48  48 100 CALM      29.95F FOG
ROGERS AR      CLOUDY    45  44  97 SE7       29.95F
SILOAM SPRINGS CLOUDY    46  45  93 SE3       29.94F
HARRISON AR    CLOUDY    42  42 100 SE8       29.98S FOG
NEAR YELLVILLE CLOUDY    43  37  81 SE3       29.98F

......KANSAS AND MISSOURI......

CITY           SKY/WX    TMP DP  RH WIND       PRES   REMARKS
KANSAS CTY INT CLOUDY    42  37  82 SE8       29.94F
DOWNTOWN KC    CLOUDY    42  39  89 CALM      29.94F
COLUMBIA       CLOUDY    45  37  73 SE3       29.99S
SEDALIA        CLOUDY    46  39  76 SE6       29.97F
ST JOSEPH      CLOUDY    39  39 100 S6        29.94F WCI  35
ST LOUIS       LGT RAIN  45  37  73 S6        30.04S
SPIRIT OF STL  CLOUDY    43  38  82 CALM      30.04R
KIRKSVILLE     CLOUDY    33  33 100 E3        29.98F FOG
WICHITA        MOCLDY    43  38  82 S10       29.87F
TOPEKA         CLOUDY    40  36  86 E5        29.92F
OLATHE         CLOUDY    42  40  92 CALM      29.94S

......TENNESSEE......

CITY           SKY/WX    TMP DP  RH WIND       PRES   REMARKS
MEMPHIS        CLOUDY    54  52  94 N7        29.99S
NASHVILLE      CLOUDY    46  42  86 E5        30.06F

......ARKANSAS.......

CITY           SKY/WX    TMP DP  RH WIND       PRES   REMARKS
FAYETTEVILLE   CLOUDY    47  47 100 CALM      29.95F
FT SMITH       CLOUDY    46  43  89 E8        29.97F
LITTLE ROCK    DRZL/FOG  46  46 100 N7        30.00F VSB 1

......OKLAHOMA.......

CITY           SKY/WX    TMP DP  RH WIND       PRES   REMARKS
TULSA          CLOUDY    47  45  93 S9        29.96S
PONCA CITY     CLEAR     46  40  79 SE12      29.91F
MCALESTER      CLOUDY    48  46  93 CALM      29.95F FOG
OKLAHOMA CITY  CLOUDY    47  45  93 S7        29.92F

......IOWA............

CITY           SKY/WX    TMP DP  RH WIND       PRES   REMARKS
DES MOINES     FOG       36  35  96 S12       29.95S VSB 1/2 WCI  28
QUAD CITIES    CLEAR     27  26  96 CALM      30.01F FOG

......ILLINOIS........

CITY           SKY/WX    TMP DP  RH WIND       PRES   REMARKS
QUINCY         PTCLDY    35  33  92 E5        30.00F WCI  31
CHICAGO        CLOUDY    30  29  96 S5        30.03F FOG     WCI  25




USA.gov is the U.S. government's official web portal to all federal, state and local government web resources and services.